Location: Belfast
(54.5830°N, 5.9330°W)
Time: 19:17:15
(UTC+01:00)

ISS - Pass Details

Date: 29 February 2024
Orbit: 413 x 419 km, 51.6° (Epoch: 12 April)

Event Time Altitude Azimuth Distance (km) Brightness Sun altitude
Exits shadow 06:34:03 - 267° (W) 1,632 -1.4 -6.6°
Reaches altitude 10° 06:34:20 10° 265° (W) 1,524 -1.6 -6.6°
Maximum altitude 06:37:24 31° 202° (SSW) 776 -2.5 -6.1°
Drops below altitude 10° 06:40:27 10° 138° (SE) 1,516 -0.2 -5.7°
Sets 06:42:41 0° 128° (SE) 2,378 1.2 -5.4°
